カタログに戻る

CZ-4B DEB

運用中PO
NORAD 29215·DEBRIS·🇨🇳 China

打ち上げ May 15, 2002 から Taiyuan Satellite Launch Center

Loading…

次のパス (今後24時間)

TLE

最新Source: Space-Track

元期: Sep 14, 2026, 21:40 UTC

1 29215U 02024F   26257.90302178  .00000181  00000-0  22455-3 0  9990
2 29215  98.7327 271.9070 0243989  18.0291  97.8914 13.64075610192518

AllMySatでCZ-4B DEBをリアルタイム追跡

Download on the App Store